EW7205 Weather Reports


Display with metric or nautical units.
time (UTC)temp
F
wind
direction
speed
MPH
gust
MPH
rain 1hr
in
rain 24hr
in
rain mn
in
humidity
%
barometer
mb
20190119034505 51 123 1.0 4.0 0.00 0.00 0.00 65 1017.7
20190119034004 51 122 0.0 4.0 0.00 0.00 0.00 65 1017.4
20190119033504 51 61 0.0 3.0 0.00 0.00 0.00 66 1017.5
20190119033004 50 188 1.0 4.0 0.00 0.00 0.00 65 1017.7
20190119032504 50 213 1.0 4.0 0.00 0.00 0.00 65 1017.6
20190119032004 51 33 0.0 2.0 0.00 0.00 0.00 67 1018.0
20190119031505 50 35 0.0 2.0 0.00 0.00 0.00 67 1017.9
20190119031004 50 21 0.0 2.0 0.00 0.00 0.00 68 1018.0
20190119030504 50 322 0.0 2.0 0.00 0.00 0.00 68 1018.0
20190119030004 50 295 0.0 2.0 0.00 0.00 0.00 68 1018.1
20190119025504 50 275 0.0 2.0 0.00 0.00 0.00 68 1017.9
20190119025004 50 289 0.0 2.0 0.00 0.00 0.00 69 1017.9
20190119024505 50 118 0.0 2.0 0.00 0.00 0.00 69 1017.9
20190119024003 50 281 0.0 3.0 0.00 0.00 0.00 69 1017.8
20190119023504 50 279 0.0 3.0 0.00 0.00 0.00 69 1018.1
20190119023005 50 236 0.0 3.0 0.00 0.00 0.00 69 1018.0
20190119022504 50 142 0.0 4.0 0.00 0.00 0.00 69 1017.9
20190119022004 50 294 0.0 4.0 0.00 0.00 0.00 69 1018.3
20190119021505 50 262 1.0 5.0 0.00 0.00 0.00 68 1018.3
20190119021003 50 240 1.0 5.0 0.00 0.00 0.00 68 1018.2
20190119020503 50 171 0.0 3.0 0.00 0.00 0.00 68 1018.3
20190119020005 50 339 1.0 4.0 0.00 0.00 0.00 69 1018.3
20190119015504 50 315 1.0 4.0 0.00 0.00 0.00 68 1018.4
20190119015003 50 303 1.0 4.0 0.00 0.00 0.00 68 1018.3
20190119014505 50 309 1.0 4.0 0.00 0.00 0.00 68 1018.3
20190119014004 50 286 0.0 3.0 0.00 0.00 0.00 69 1018.1
20190119013503 50 245 0.0 2.0 0.00 0.00 0.00 69 1018.1
20190119013004 50 301 0.0 4.0 0.00 0.00 0.00 70 1018.2
20190119012504 50 290 0.0 4.0 0.00 0.00 0.00 70 1018.1
20190119012004 49 245 0.0 4.0 0.00 0.00 0.00 71 1018.1
20190119011504 49 235 0.0 3.0 0.00 0.00 0.00 71 1017.9
20190119011003 49 223 0.0 2.0 0.00 0.00 0.00 71 1017.9
20190119010504 49 197 0.0 2.0 0.00 0.00 0.00 71 1017.9
20190119010005 49 200 0.0 3.0 0.00 0.00 0.00 71 1018.1
20190119005504 49 244 0.0 3.0 0.00 0.00 0.00 71 1017.8
20190119005003 49 280 0.0 4.0 0.00 0.00 0.00 71 1017.9
20190119004504 49 260 0.0 4.0 0.00 0.00 0.00 71 1017.8
20190118230005 49 267 0.0 5.0 0.00 0.00 0.00 71 1017.6
20190118225504 49 275 0.0 5.0 0.00 0.00 0.00 71 1017.6
20190118225003 49 300 0.0 4.0 0.00 0.00 0.00 71 1017.5
20190118224506 49 291 1.0 4.0 0.00 0.00 0.00 71 1017.5
20190118223503 49 208 0.0 4.0 0.00 0.00 0.00 71 1017.6
20190118223005 49 229 1.0 5.0 0.00 0.00 0.00 71 1017.4
20190118222504 48 247 1.0 5.0 0.00 0.00 0.00 71 1017.0
20190118222003 48 187 0.0 4.0 0.00 0.00 0.00 72 1017.2
20190118221504 48 179 0.0 4.0 0.00 0.00 0.00 72 1016.9
20190118221004 48 143 0.0 4.0 0.00 0.00 0.00 72 1017.1
20190118220504 48 161 0.0 4.0 0.00 0.00 0.00 72 1017.0
20190118220005 48 169 0.0 4.0 0.00 0.00 0.00 74 1017.0
20190118215504 48 126 0.0 4.0 0.00 0.00 0.00 74 1017.0
20190118215004 48 174 0.0 4.0 0.00 0.00 0.00 74 1016.9
20190118214505 48 181 1.0 4.0 0.00 0.00 0.00 75 1016.9
20190118214003 47 173 0.0 3.0 0.00 0.00 0.00 75 1016.8
20190118213504 47 174 0.0 3.0 0.00 0.00 0.00 76 1017.0
20190118213005 47 174 0.0 3.0 0.00 0.00 0.00 76 1017.2
20190118212503 47 254 0.0 2.0 0.00 0.00 0.00 77 1017.3
20190118212004 47 22 0.0 2.0 0.00 0.00 0.00 77 1017.2
20190118211505 47 341 0.0 3.0 0.00 0.00 0.00 78 1017.4
20190118211003 47 272 0.0 4.0 0.00 0.00 0.00 78 1017.2
20190118210503 47 235 0.0 4.0 0.00 0.00 0.00 78 1017.2
20190118210005 47 199 0.0 4.0 0.00 0.00 0.00 78 1017.2
20190118205504 47 187 0.0 3.0 0.00 0.00 0.00 78 1017.0
20190118205003 47 118 0.0 3.0 0.00 0.00 0.00 78 1017.0
20190118204505 47 158 0.0 3.0 0.00 0.00 0.00 78 1017.0
20190118204004 47 168 0.0 2.0 0.00 0.00 0.00 78 1016.9
20190118203503 47 154 0.0 4.0 0.00 0.00 0.00 79 1016.9
20190118203004 47 141 0.0 4.0 0.00 0.00 0.00 80 1016.6
20190118202504 47 149 0.0 4.0 0.00 0.00 0.00 81 1016.6
20190118202004 47 149 0.0 4.0 0.00 0.00 0.00 81 1016.5
20190118201504 47 164 0.0 4.0 0.00 0.00 0.00 81 1016.5
20190118201003 47 175 0.0 4.0 0.00 0.00 0.00 81 1016.7
20190118200504 47 142 0.0 4.0 0.00 0.00 0.00 82 1016.8
20190118200005 47 135 0.0 4.0 0.00 0.00 0.00 82 1016.9
20190118195503 47 142 0.0 4.0 0.00 0.00 0.00 82 1017.2
20190118195004 47 145 0.0 4.0 0.00 0.00 0.00 82 1016.9
20190118194505 47 140 0.0 4.0 0.00 0.00 0.00 83 1017.1
20190118194004 47 160 0.0 3.0 0.00 0.00 0.00 83 1017.1
20190118193503 47 183 0.0 3.0 0.00 0.00 0.00 83 1017.2
20190118193006 47 144 0.0 4.0 0.00 0.00 0.00 82 1017.4
20190118192504 47 116 0.0 4.0 0.00 0.00 0.00 82 1017.7
20190118192003 47 141 0.0 3.0 0.00 0.00 0.00 82 1017.8
20190118191506 47 152 0.0 4.0 0.00 0.00 0.00 82 1017.9
20190118191004 47 154 0.0 4.0 0.00 0.00 0.00 82 1018.1
20190118190504 47 0 0.0 2.0 0.00 0.00 0.00 82 1018.0
20190118190004 47 0 0.0 2.0 0.00 0.00 0.00 82 1018.1
20190118185504 47 155 0.0 2.0 0.00 0.00 0.00 82 1018.1
20190118185003 47 156 0.0 3.0 0.00 0.00 0.00 82 1018.3
20190118184505 47 138 0.0 3.0 0.00 0.00 0.00 82 1018.2
20190118184004 47 120 0.0 3.0 0.00 0.00 0.00 82 1018.5
20190118183504 47 142 0.0 2.0 0.00 0.00 0.00 81 1018.6
20190118183005 47 144 0.0 2.0 0.00 0.00 0.00 81 1018.5
20190118182503 47 0 0.0 2.0 0.00 0.00 0.00 81 1018.7
20190118182004 47 0 0.0 2.0 0.00 0.00 0.00 80 1018.8
20190118181505 47 129 0.0 3.0 0.00 0.00 0.00 80 1019.0
20190118181003 47 138 0.0 3.0 0.00 0.00 0.00 80 1018.9
20190118180504 47 136 0.0 2.0 0.00 0.00 0.00 79 1018.7
20190118180005 47 134 0.0 2.0 0.00 0.00 0.00 79 1018.8
20190118175503 47 0 0.0 2.0 0.00 0.00 0.00 79 1018.8
20190118175004 47 154 0.0 2.0 0.00 0.00 0.00 78 1019.0
20190118174505 47 140 0.0 3.0 0.00 0.00 0.00 78 1019.0
20190118174003 47 0 0.0 3.0 0.00 0.00 0.00 78 1018.8
20190118173503 47 0 0.0 3.0 0.00 0.00 0.00 78 1019.0
20190118173005 47 156 0.0 3.0 0.00 0.00 0.00 77 1018.8
20190118172503 47 149 0.0 3.0 0.00 0.00 0.00 77 1018.8
20190118172003 47 141 0.0 3.0 0.00 0.00 0.00 77 1018.7
20190118171505 47 147 0.0 4.0 0.00 0.00 0.00 77 1018.9
20190118171005 47 154 0.0 4.0 0.00 0.00 0.00 77 1018.9
20190118170504 47 158 0.0 2.0 0.00 0.00 0.00 77 1018.5
20190118170005 47 123 0.0 3.0 0.00 0.00 0.00 77 1018.4
20190118165504 47 122 0.0 3.0 0.00 0.00 0.00 77 1018.5
20190118165003 47 139 0.0 3.0 0.00 0.00 0.00 77 1018.6
20190118164504 47 141 0.0 3.0 0.00 0.00 0.00 77 1018.7
20190118164004 47 138 0.0 3.0 0.00 0.00 0.00 77 1018.7
20190118163504 47 134 0.0 4.0 0.00 0.00 0.00 77 1018.8
20190118163004 47 148 0.0 4.0 0.00 0.00 0.00 77 1018.6
20190118162504 47 0 0.0 2.0 0.00 0.00 0.00 77 1018.7
20190118162005 47 144 0.0 3.0 0.00 0.00 0.00 77 1018.8
20190118161504 47 139 0.0 3.0 0.00 0.00 0.00 77 1018.8
20190118161003 47 127 0.0 3.0 0.00 0.00 0.00 77 1019.0
20190118160504 47 144 0.0 3.0 0.00 0.00 0.00 76 1018.9
20190118160005 47 142 0.0 2.0 0.00 0.00 0.00 76 1019.0
20190118155503 47 135 0.0 2.0 0.00 0.00 0.00 76 1019.1
20190118155004 47 138 0.0 3.0 0.00 0.00 0.00 76 1019.0
20190118154505 47 140 0.0 3.0 0.00 0.00 0.00 76 1018.9
20190118154003 47 145 0.0 2.0 0.00 0.00 0.00 75 1019.0
20190118153503 47 145 0.0 2.0 0.00 0.00 0.00 75 1019.1
20190118153005 47 131 0.0 2.0 0.00 0.00 0.00 75 1018.9
20190118152504 47 113 0.0 2.0 0.00 0.00 0.00 75 1018.9
20190118152003 47 110 0.0 4.0 0.00 0.00 0.00 75 1019.0
20190118151505 47 122 0.0 4.0 0.00 0.00 0.00 75 1019.1
20190118151004 47 137 0.0 3.0 0.00 0.00 0.00 75 1018.8
20190118150503 47 140 0.0 3.0 0.00 0.00 0.00 75 1018.9
20190118150005 47 141 0.0 3.0 0.00 0.00 0.00 75 1018.9
20190118145504 47 136 0.0 3.0 0.00 0.00 0.00 75 1018.8
20190118145004 47 141 0.0 3.0 0.00 0.00 0.00 75 1018.8
20190118144505 47 144 0.0 2.0 0.00 0.00 0.00 75 1018.8
20190118144004 47 135 0.0 2.0 0.00 0.00 0.00 75 1018.8
20190118143503 47 142 0.0 2.0 0.00 0.00 0.00 75 1018.8
20190118143005 47 0 0.0 2.0 0.00 0.00 0.00 75 1018.8
20190118142504 47 158 0.0 4.0 0.00 0.00 0.00 74 1019.2
20190118142004 47 155 0.0 4.0 0.00 0.00 0.00 74 1019.2
20190118141504 47 162 0.0 2.0 0.00 0.00 0.00 74 1019.2
20190118141004 47 175 0.0 2.0 0.00 0.00 0.00 74 1019.3
20190118140504 47 145 0.0 3.0 0.00 0.00 0.00 74 1019.2
20190118140006 47 129 0.0 4.0 0.00 0.00 0.00 74 1019.3
20190118135504 47 136 0.0 4.0 0.00 0.00 0.00 74 1019.3
20190118135004 47 129 0.0 4.0 0.00 0.00 0.00 74 1019.3
20190118134505 47 124 0.0 2.0 0.00 0.00 0.00 74 1019.5
20190118134004 47 147 0.0 2.0 0.00 0.00 0.00 74 1019.1
20190118133504 47 135 0.0 2.0 0.00 0.00 0.00 74 1019.3
20190118133004 47 0 0.0 2.0 0.00 0.00 0.00 74 1019.5
20190118132504 47 140 0.0 3.0 0.00 0.00 0.00 74 1019.6
20190118132004 47 131 0.0 3.0 0.00 0.00 0.00 74 1019.3
20190118131505 47 0 0.0 2.0 0.00 0.00 0.00 74 1019.5
20190118131004 47 141 0.0 3.0 0.00 0.00 0.00 74 1019.4
20190118130504 47 123 0.0 3.0 0.00 0.00 0.00 74 1019.6
20190118130005 47 0 0.0 2.0 0.00 0.00 0.00 73 1019.7
20190118125504 47 0 0.0 2.0 0.00 0.00 0.00 73 1019.7
20190118125004 47 0 0.0 2.0 0.00 0.00 0.00 73 1019.7
20190118124505 47 0 0.0 2.0 0.00 0.00 0.00 73 1019.6
20190118124005 47 0 0.0 2.0 0.00 0.00 0.00 73 1019.7
20190118123503 47 0 0.0 3.0 0.00 0.00 0.00 73 1019.7
20190118123004 47 0 0.0 3.0 0.00 0.00 0.00 73 1019.8
20190118122504 47 0 0.0 2.0 0.00 0.00 0.00 73 1019.7
20190118122004 47 0 0.0 2.0 0.00 0.00 0.00 72 1019.8
20190118121505 47 0 0.0 2.0 0.00 0.00 0.00 72 1020.0
20190118121004 47 134 0.0 2.0 0.00 0.00 0.00 72 1019.9
20190118120503 47 130 0.0 2.0 0.00 0.00 0.00 72 1019.9
20190118120007 47 0 0.0 2.0 0.00 0.00 0.00 71 1019.9
20190118115504 47 151 0.0 3.0 0.00 0.00 0.00 71 1019.9
20190118115004 47 147 0.0 3.0 0.00 0.00 0.00 70 1019.9
20190118114504 47 131 0.0 2.0 0.00 0.00 0.00 70 1019.9
20190118114005 47 127 0.0 2.0 0.00 0.00 0.00 69 1019.7
20190118113504 47 0 0.0 2.0 0.00 0.00 0.00 68 1019.9
20190118113008 47 0 0.0 2.0 0.00 0.00 0.00 68 1019.8
20190118112504 47 0 0.0 2.0 0.00 0.00 0.00 67 1019.7
20190118112004 47 0 0.0 2.0 0.00 0.00 0.00 67 1019.8
20190118111504 47 0 0.0 2.0 0.00 0.00 0.00 66 1020.0
20190118111004 47 0 0.0 2.0 0.00 0.00 0.00 66 1020.0
20190118110504 47 0 0.0 2.0 0.00 0.00 0.00 65 1019.9
20190118110006 47 0 0.0 2.0 0.00 0.00 0.00 65 1019.8
20190118105504 47 152 0.0 2.0 0.00 0.00 0.00 64 1019.7
20190118105004 47 149 0.0 2.0 0.00 0.00 0.00 64 1019.8
20190118104505 48 0 0.0 2.0 0.00 0.00 0.00 63 1019.8
20190118104003 48 0 0.0 2.0 0.00 0.00 0.00 63 1019.8
20190118103504 48 0 0.0 2.0 0.00 0.00 0.00 63 1019.9
20190118103005 48 0 0.0 2.0 0.00 0.00 0.00 62 1019.8
20190118102503 48 0 0.0 2.0 0.00 0.00 0.00 61 1019.8
20190118102005 48 0 0.0 2.0 0.00 0.00 0.00 61 1019.5
20190118101505 48 0 0.0 2.0 0.00 0.00 0.00 60 1019.7
20190118101003 48 0 0.0 2.0 0.00 0.00 0.00 59 1019.8
20190118100504 48 0 0.0 2.0 0.00 0.00 0.00 58 1019.7
20190118100005 49 0 0.0 2.0 0.00 0.00 0.00 58 1019.8
20190118095503 49 0 0.0 2.0 0.00 0.00 0.00 57 1019.7
20190118095003 49 171 0.0 2.0 0.00 0.00 0.00 56 1019.9
20190118094505 49 182 0.0 2.0 0.00 0.00 0.00 56 1019.7
20190118094004 49 0 0.0 2.0 0.00 0.00 0.00 55 1019.9
20190118093503 49 0 0.0 2.0 0.00 0.00 0.00 55 1019.8
20190118093005 50 0 0.0 2.0 0.00 0.00 0.00 54 1019.7
20190118092504 50 0 0.0 1.0 0.00 0.00 0.00 54 1020.0
20190118092003 50 0 0.0 1.0 0.00 0.00 0.00 53 1019.8
20190118091505 50 0 0.0 1.0 0.00 0.00 0.00 53 1019.9
20190118091004 50 0 0.0 2.0 0.00 0.00 0.00 52 1019.8
20190118090504 50 0 0.0 2.0 0.00 0.00 0.00 52 1020.0
20190118090004 50 0 0.0 2.0 0.00 0.00 0.00 51 1020.1
20190118085504 50 0 0.0 2.0 0.00 0.00 0.00 51 1020.1
20190118085004 51 0 0.0 2.0 0.00 0.00 0.00 50 1020.1
20190118084504 51 144 0.0 2.0 0.00 0.00 0.00 50 1020.0
20190118084004 52 130 0.0 2.0 0.00 0.00 0.00 50 1020.1
20190118083504 52 137 0.0 4.0 0.00 0.00 0.00 50 1020.2
20190118083005 52 138 0.0 4.0 0.00 0.00 0.00 48 1020.5
20190118082504 52 136 0.0 4.0 0.00 0.00 0.00 46 1020.3
20190118082004 53 135 0.0 4.0 0.00 0.00 0.00 44 1020.4
20190118081505 54 125 0.0 2.0 0.00 0.00 0.00 42 1020.4
20190118081003 54 132 0.0 4.0 0.00 0.00 0.00 41 1020.6